TimeCDT,TemperatureF,Dew PointF,Humidity,Sea Level PressureIn,VisibilityMPH,Wind Direction,Wind SpeedMPH,Gust SpeedMPH,PrecipitationIn,Events,Conditions,WindDirDegrees,DateUTC
12:53 AM,73.9,68.0,82,29.61,7.0,West,11.5,26.5,0.00,Rain,Light Rain,280,2012-03-20 05:53:00
1:01 AM,64.4,57.2,77,29.64,10.0,NNW,12.7,28.8,0.00,Thunderstorm,Overcast,330,2012-03-20 06:01:00
1:09 AM,60.8,55.4,82,29.65,9.0,NW,24.2,32.2,0.01,Rain-Thunderstorm,Light Rain,310,2012-03-20 06:09:00
1:23 AM,57.2,55.4,94,29.65,2.5,NW,16.1,31.1,0.10,Rain-Thunderstorm,Thunderstorms and Rain,320,2012-03-20 06:23:00
1:29 AM,57.2,55.4,94,29.67,0.8,NNW,12.7,27.6,0.37,Rain-Thunderstorm,Heavy Thunderstorms and Rain,330,2012-03-20 06:29:00
1:37 AM,55.4,55.4,100,29.68,0.8,WNW,8.1,23.0,0.63,Rain-Thunderstorm,Heavy Thunderstorms and Rain,290,2012-03-20 06:37:00
1:53 AM,55.9,55.0,97,29.65,0.8,NNW,6.9,19.6,1.14,Rain-Thunderstorm,Heavy Thunderstorms and Rain,340,2012-03-20 06:53:00
2:01 AM,55.4,55.4,100,29.65,1.5,North,12.7,-,0.12,Rain-Thunderstorm,Heavy Thunderstorms and Rain,360,2012-03-20 07:01:00
2:07 AM,55.4,55.4,100,29.64,2.0,North,11.5,-,0.17,Rain-Thunderstorm,Heavy Thunderstorms and Rain,360,2012-03-20 07:07:00
2:14 AM,57.2,55.4,94,29.64,2.5,North,11.5,-,0.22,Rain-Thunderstorm,Heavy Thunderstorms and Rain,360,2012-03-20 07:14:00
2:23 AM,57.2,55.4,94,29.66,6.0,NNW,15.0,20.7,0.24,Rain-Thunderstorm,Light Thunderstorms and Rain,340,2012-03-20 07:23:00
2:35 AM,57.2,55.4,94,29.66,2.0,North,16.1,26.5,0.37,Rain-Thunderstorm,Heavy Thunderstorms and Rain,10,2012-03-20 07:35:00
2:53 AM,55.9,55.0,97,29.61,3.0,North,17.3,27.6,0.46,Rain-Thunderstorm,Thunderstorms and Rain,10,2012-03-20 07:53:00
3:25 AM,55.4,53.6,94,29.67,2.0,North,17.3,23.0,0.23,Rain-Thunderstorm,Heavy Thunderstorms and Rain,10,2012-03-20 08:25:00
3:40 AM,55.4,53.6,94,29.65,3.0,North,15.0,26.5,0.27,Rain-Thunderstorm,Light Thunderstorms and Rain,10,2012-03-20 08:40:00
3:53 AM,55.0,54.0,96,29.58,5.0,NNE,16.1,25.3,0.29,Rain-Thunderstorm,Thunderstorms and Rain,30,2012-03-20 08:53:00
4:21 AM,55.4,53.6,94,29.70,10.0,NE,10.4,20.7,0.01,Thunderstorm,Thunderstorm,50,2012-03-20 09:21:00
4:32 AM,55.4,53.6,94,29.72,10.0,ENE,12.7,-,0.01,,Overcast,70,2012-03-20 09:32:00
4:49 AM,55.4,53.6,94,29.66,10.0,NNE,17.3,24.2,0.01,Rain-Thunderstorm,Light Rain,30,2012-03-20 09:49:00
4:53 AM,55.0,53.1,93,29.65,10.0,NNE,16.1,24.2,0.01,Rain-Thunderstorm,Light Rain,30,2012-03-20 09:53:00
5:04 AM,55.4,53.6,94,29.68,10.0,NNE,13.8,25.3,0.00,Rain,Light Rain,30,2012-03-20 10:04:00
5:14 AM,55.4,53.6,94,29.68,10.0,NNE,12.7,18.4,0.00,,Overcast,30,2012-03-20 10:14:00
5:53 AM,55.0,52.0,89,29.70,10.0,North,10.4,-,0.00,,Overcast,10,2012-03-20 10:53:00
6:53 AM,55.0,52.0,89,29.74,10.0,NNE,12.7,23.0,N/A,,Overcast,20,2012-03-20 11:53:00
7:53 AM,55.0,51.1,86,29.78,10.0,NNE,12.7,18.4,N/A,,Overcast,20,2012-03-20 12:53:00
8:53 AM,55.9,51.1,84,29.78,10.0,North,9.2,21.9,N/A,,Scattered Clouds,10,2012-03-20 13:53:00
9:53 AM,57.9,51.1,78,29.80,10.0,NNE,15.0,21.9,N/A,,Partly Cloudy,20,2012-03-20 14:53:00
10:53 AM,59.0,50.0,72,29.81,10.0,North,10.4,-,N/A,,Clear,10,2012-03-20 15:53:00
11:53 AM,64.0,51.1,63,29.80,10.0,Variable,5.8,-,N/A,,Clear,0,2012-03-20 16:53:00
12:53 PM,66.9,48.9,52,29.78,10.0,ENE,3.5,-,N/A,,Clear,70,2012-03-20 17:53:00
1:53 PM,66.9,43.0,42,29.78,10.0,West,5.8,-,N/A,,Partly Cloudy,270,2012-03-20 18:53:00
2:53 PM,68.0,43.0,40,29.78,10.0,WNW,12.7,17.3,N/A,,Clear,290,2012-03-20 19:53:00
3:53 PM,66.9,43.0,42,29.75,10.0,NW,10.4,-,N/A,,Partly Cloudy,320,2012-03-20 20:53:00
6:53 PM,64.0,48.0,56,29.77,10.0,Calm,Calm,-,N/A,,Scattered Clouds,0,2012-03-20 23:53:00
7:53 PM,63.0,46.0,54,29.78,10.0,Calm,Calm,-,N/A,,Clear,0,2012-03-21 00:53:00
8:53 PM,57.9,51.1,78,29.79,10.0,Calm,Calm,-,N/A,,Clear,0,2012-03-21 01:53:00
9:53 PM,57.9,52.0,81,29.84,10.0,West,4.6,-,N/A,,Clear,280,2012-03-21 02:53:00
10:53 PM,59.0,48.0,67,29.84,10.0,North,3.5,-,N/A,,Clear,350,2012-03-21 03:53:00
11:53 PM,57.9,51.1,78,29.85,10.0,Calm,Calm,-,N/A,,Partly Cloudy,0,2012-03-21 04:53:00